Terminal Aerodrome Forecast
Issued by NWS Cheyenne, WY

Home | Current Version | Previous Version | Text Only | Print | Product List | Glossary On
Versions: 1 2 3 4 5 6 7 8 9 10 11 12 13 14 15 16 17 18 19 20 21 22 23 24 25 26 27 28 29 30 31 32 33 34 35 36 37 38 39 40 41 42 43 44 45 46 47 48 49 50
000
FTUS45 KCYS 242322
TAFCYS
TAF
KCYS 242322Z 2500/2524 33010KT P6SM VCTS SCT035CB BKN120
      TEMPO 2500/2503 3SM -TSRA BKN025CB
     FM250300 31008KT P6SM -SHRA BKN025
     FM250600 32012KT P6SM OVC015
     FM251300 32010KT P6SM BKN050
     FM252000 31012KT P6SM VCTS SCT050CB BKN100=

USA.gov is the U.S. government's official web portal to all federal, state and local government web resources and services.